,,,PA_Meas_PMT16A,,PR_Meas_QMR101_102,,RH_Meas_QMH101,,SR_Meas_QMS101,,TA_Meas_QMH101,,GenWind,,GenWind,
date,time,status,PA,status,PR,status,RH,status,SR,status,TA,status,DirAvg,status,SpdAvg,
2010-08-03, 00:00:05,VALID,1009.52,VALID,0,VALID,101.583,VALID,0,VALID,24.4345,VALID,56,VALID,0.533203,
2010-08-03, 00:01:05,VALID,1009.49,VALID,0,VALID,101.674,VALID,0,VALID,24.4345,VALID,55,VALID,0.348828,
2010-08-03, 00:02:05,VALID,1009.48,VALID,0,VALID,101.743,VALID,0,VALID,24.3937,VALID,55,VALID,0.3625,
2010-08-03, 00:03:05,VALID,1009.45,VALID,0,VALID,101.804,VALID,0,VALID,24.3956,VALID,73,VALID,0.526172,
2010-08-03, 00:04:05,VALID,1009.44,VALID,0,VALID,101.888,VALID,0,VALID,24.3742,VALID,73,VALID,0,
2010-08-03, 00:05:05,VALID,1009.44,VALID,0,VALID,101.964,VALID,0,VALID,24.3974,VALID,73,VALID,0,
2010-08-03, 00:06:05,VALID,1009.4,VALID,0,VALID,101.994,VALID,0,VALID,24.3779,VALID,73,VALID,0,
2010-08-03, 00:07:05,VALID,1009.43,VALID,0,VALID,102.017,VALID,0,VALID,24.3566,VALID,73,VALID,0.23125,
2010-08-03, 00:08:05,VALID,1009.44,VALID,0,VALID,102.055,VALID,0,VALID,24.3584,VALID,64,VALID,0.594922,
2010-08-03, 00:09:05,VALID,1009.42,VALID,0,VALID,102.078,VALID,0,VALID,24.3584,VALID,60,VALID,0.589844,
2010-08-03, 00:10:05,VALID,1009.44,VALID,0,VALID,102.109,VALID,0,VALID,24.3389,VALID,73,VALID,0.438281,
2010-08-03, 00:11:05,VALID,1009.45,VALID,0,VALID,102.155,VALID,0,VALID,24.3176,VALID,73,VALID,0.372656,
2010-08-03, 00:12:05,VALID,1009.45,VALID,0,VALID,102.208,VALID,0,VALID,24.3389,VALID,83,VALID,0.666797,
2010-08-03, 00:13:05,VALID,1009.42,VALID,0,VALID,102.223,VALID,0,VALID,24.3389,VALID,82,VALID,0.739062,
2010-08-03, 00:14:05,VALID,1009.41,VALID,0,VALID,102.223,VALID,0,VALID,24.3371,VALID,79,VALID,0.689062,
2010-08-03, 00:15:05,VALID,1009.37,VALID,0,VALID,102.254,VALID,0,VALID,24.3158,VALID,52,VALID,0.504687,
2010-08-03, 00:16:05,VALID,1009.36,VALID,0,VALID,102.269,VALID,0.105969,VALID,24.3352,VALID,95,VALID,0.764453,
2010-08-03, 00:17:05,VALID,1009.33,VALID,0,VALID,102.246,VALID,0,VALID,24.3352,VALID,93,VALID,0.540234,
2010-08-03, 00:18:05,VALID,1009.35,VALID,0,VALID,102.238,VALID,0,VALID,24.3566,VALID,79,VALID,0.529297,
2010-08-03, 00:19:05,VALID,1009.31,VALID,0,VALID,102.231,VALID,0,VALID,24.3566,VALID,80,VALID,0.853125,
2010-08-03, 00:20:05,VALID,1009.31,VALID,0,VALID,102.238,VALID,0,VALID,24.3566,VALID,63,VALID,0.713281,
2010-08-03, 00:21:05,VALID,1009.3,VALID,0,VALID,102.208,VALID,0,VALID,24.3761,VALID,73,VALID,1.03477,
2010-08-03, 00:22:05,VALID,1009.32,VALID,0,VALID,102.193,VALID,0,VALID,24.3956,VALID,77,VALID,0.980859,
2010-08-03, 00:23:05,VALID,1009.28,VALID,0,VALID,102.139,VALID,0,VALID,24.3761,VALID,69,VALID,0.863672,
2010-08-03, 00:24:05,VALID,1009.25,VALID,0,VALID,102.101,VALID,0,VALID,24.3956,VALID,95,VALID,0.999609,
2010-08-03, 00:25:05,VALID,1009.26,VALID,0,VALID,102.071,VALID,0,VALID,24.3937,VALID,101,VALID,1.2582,
2010-08-03, 00:26:05,VALID,1009.23,VALID,0,VALID,102.055,VALID,0,VALID,24.415,VALID,81,VALID,0.632813,
2010-08-03, 00:27:05,VALID,1009.22,VALID,0,VALID,102.01,VALID,0,VALID,24.415,VALID,57,VALID,0.948438,
2010-08-03, 00:28:05,VALID,1009.18,VALID,0,VALID,101.987,VALID,0,VALID,24.415,VALID,96,VALID,0.702344,
2010-08-03, 00:29:05,VALID,1009.17,VALID,0,VALID,101.964,VALID,0.105969,VALID,24.415,VALID,97,VALID,1.07656,
2010-08-03, 00:30:05,VALID,1009.14,VALID,0,VALID,101.972,VALID,0,VALID,24.3937,VALID,86,VALID,0.653906,
2010-08-03, 00:31:05,VALID,1009.12,VALID,0,VALID,101.972,VALID,0,VALID,24.3937,VALID,89,VALID,0.698828,
2010-08-03, 00:32:05,VALID,1009.1,VALID,0,VALID,101.964,VALID,0,VALID,24.3937,VALID,86,VALID,0.648828,
2010-08-03, 00:33:05,VALID,1009.1,VALID,0,VALID,101.979,VALID,0.105969,VALID,24.415,VALID,86,VALID,0.473437,
2010-08-03, 00:34:05,VALID,1009.06,VALID,0,VALID,101.956,VALID,0.105969,VALID,24.415,VALID,86,VALID,0.570703,
2010-08-03, 00:35:05,VALID,1009.08,VALID,0,VALID,101.933,VALID,0,VALID,24.415,VALID,75,VALID,0.707812,
2010-08-03, 00:36:05,VALID,1009.07,VALID,0,VALID,101.895,VALID,0,VALID,24.415,VALID,75,VALID,0.638281,
2010-08-03, 00:37:05,VALID,1009.05,VALID,0,VALID,101.85,VALID,0,VALID,24.415,VALID,50,VALID,0.71875,
2010-08-03, 00:38:05,VALID,1009.04,VALID,0,VALID,101.842,VALID,0,VALID,24.415,VALID,48,VALID,0.561719,
2010-08-03, 00:39:05,VALID,1009.03,VALID,0,VALID,101.827,VALID,0,VALID,24.415,VALID,56,VALID,0.38125,
2010-08-03, 00:40:05,VALID,1009.05,VALID,0,VALID,101.842,VALID,0,VALID,24.415,VALID,56,VALID,0,
2010-08-03, 00:41:05,VALID,1009.04,VALID,0,VALID,101.88,VALID,0,VALID,24.3956,VALID,56,VALID,0.05,
2010-08-03, 00:42:05,VALID,1009.04,VALID,0,VALID,101.903,VALID,0.105969,VALID,24.3956,VALID,56,VALID,0.495703,
2010-08-03, 00:43:05,VALID,1009.06,VALID,0,VALID,101.88,VALID,0,VALID,24.3956,VALID,56,VALID,0.286719,
2010-08-03, 00:44:05,VALID,1009.07,VALID,0,VALID,101.895,VALID,0,VALID,24.3956,VALID,56,VALID,0.414063,
2010-08-03, 00:45:05,VALID,1009.09,VALID,0,VALID,101.88,VALID,0.105969,VALID,24.3956,VALID,56,VALID,0.579297,
2010-08-03, 00:46:05,VALID,1009.09,VALID,0,VALID,101.895,VALID,0.105969,VALID,24.3956,VALID,56,VALID,0.378516,
2010-08-03, 00:47:05,VALID,1009.08,VALID,0,VALID,101.865,VALID,0,VALID,24.3742,VALID,53,VALID,0.403516,
2010-08-03, 00:48:05,VALID,1009.11,VALID,0,VALID,101.918,VALID,0,VALID,24.3761,VALID,53,VALID,0.263281,
2010-08-03, 00:49:05,VALID,1009.08,VALID,0,VALID,101.941,VALID,0,VALID,24.3761,VALID,53,VALID,0.021875,
2010-08-03, 00:50:05,VALID,1009.06,VALID,0,VALID,101.987,VALID,0.105969,VALID,24.3566,VALID,53,VALID,0,
2010-08-03, 00:51:05,VALID,1009.04,VALID,0,VALID,102.017,VALID,0,VALID,24.3547,VALID,53,VALID,0,
2010-08-03, 00:52:05,VALID,1009.03,VALID,0,VALID,102.025,VALID,0,VALID,24.3352,VALID,53,VALID,0,
2010-08-03, 00:53:05,VALID,1009.03,VALID,0,VALID,102.063,VALID,0.105969,VALID,24.3566,VALID,53,VALID,0,
2010-08-03, 00:54:05,VALID,1008.99,VALID,0,VALID,102.094,VALID,0,VALID,24.3547,VALID,53,VALID,0,
2010-08-03, 00:55:05,VALID,1008.98,VALID,0,VALID,102.086,VALID,0,VALID,24.3566,VALID,53,VALID,0,
2010-08-03, 00:56:05,VALID,1008.94,VALID,0,VALID,102.124,VALID,0.105969,VALID,24.3547,VALID,53,VALID,0.302344,
2010-08-03, 00:57:05,VALID,1008.92,VALID,0,VALID,102.139,VALID,0,VALID,24.3956,VALID,53,VALID,0.153906,
2010-08-03, 00:58:05,VALID,1008.91,VALID,0,VALID,102.17,VALID,0,VALID,24.3352,VALID,53,VALID,0,
2010-08-03, 00:59:05,VALID,1008.88,VALID,0,VALID,102.155,VALID,0,VALID,24.3566,VALID,76,VALID,0.168359,
2010-08-03, 01:00:05,VALID,1008.87,VALID,0,VALID,102.193,VALID,0,VALID,24.3158,VALID,76,VALID,0.274219,
2010-08-03, 01:01:05,VALID,1008.84,VALID,0,VALID,102.185,VALID,0,VALID,24.2963,VALID,76,VALID,0.291016,
2010-08-03, 01:02:05,VALID,1008.84,VALID,0,VALID,102.177,VALID,0,VALID,24.2981,VALID,76,VALID,0,
2010-08-03, 01:03:05,VALID,1008.82,VALID,0,VALID,102.216,VALID,0,VALID,24.2768,VALID,76,VALID,0,
2010-08-03, 01:04:05,VALID,1008.79,VALID,0,VALID,102.254,VALID,0,VALID,24.2981,VALID,76,VALID,0,
2010-08-03, 01:05:05,VALID,1008.76,VALID,0,VALID,102.299,VALID,0.105969,VALID,24.2768,VALID,76,VALID,0,
2010-08-03, 01:06:05,VALID,1008.74,VALID,0,VALID,102.322,VALID,0,VALID,24.2768,VALID,76,VALID,0,
2010-08-03, 01:07:05,VALID,1008.69,VALID,0,VALID,102.36,VALID,0,VALID,24.2573,VALID,76,VALID,0,
2010-08-03, 01:08:05,VALID,1008.65,VALID,0,VALID,102.376,VALID,0,VALID,24.2786,VALID,76,VALID,0,
2010-08-03, 01:09:05,VALID,1008.63,VALID,0,VALID,102.406,VALID,0,VALID,24.2786,VALID,76,VALID,0,
2010-08-03, 01:10:05,VALID,1008.62,VALID,0,VALID,102.444,VALID,0.105969,VALID,24.2573,VALID,76,VALID,0,
2010-08-03, 01:11:05,VALID,1008.61,VALID,0,VALID,102.49,VALID,0,VALID,24.2573,VALID,76,VALID,0,
2010-08-03, 01:12:05,VALID,1008.62,VALID,0,VALID,102.505,VALID,0,VALID,24.2786,VALID,76,VALID,0,
2010-08-03, 01:13:05,VALID,1008.61,VALID,0,VALID,102.521,VALID,0,VALID,24.2786,VALID,76,VALID,0,
2010-08-03, 01:14:05,VALID,1008.61,VALID,0,VALID,102.528,VALID,0,VALID,24.2378,VALID,76,VALID,0,
2010-08-03, 01:15:05,VALID,1008.59,VALID,0,VALID,102.544,VALID,0.105969,VALID,24.2378,VALID,76,VALID,0,
2010-08-03, 01:16:05,VALID,1008.6,VALID,0,VALID,102.551,VALID,0,VALID,24.2396,VALID,76,VALID,0,
2010-08-03, 01:17:05,VALID,1008.61,VALID,0,VALID,102.566,VALID,0.105969,VALID,24.2183,VALID,72,VALID,0.446094,
2010-08-03, 01:18:05,VALID,1008.6,VALID,0,VALID,102.551,VALID,0,VALID,24.2007,VALID,65,VALID,0.424219,
2010-08-03, 01:19:05,VALID,1008.59,VALID,0,VALID,102.582,VALID,0,VALID,24.1988,VALID,62,VALID,0.485938,
2010-08-03, 01:20:05,VALID,1008.61,VALID,0,VALID,102.551,VALID,0.105969,VALID,24.1793,VALID,42,VALID,0.39375,
2010-08-03, 01:21:05,VALID,1008.63,VALID,0,VALID,102.597,VALID,0.105969,VALID,24.2007,VALID,42,VALID,0.215234,
2010-08-03, 01:22:05,VALID,1008.62,VALID,0,VALID,102.612,VALID,0,VALID,24.1599,VALID,42,VALID,0.141797,
2010-08-03, 01:23:05,VALID,1008.59,VALID,0,VALID,102.612,VALID,0,VALID,24.1793,VALID,42,VALID,0.196875,
2010-08-03, 01:24:05,VALID,1008.6,VALID,0,VALID,102.62,VALID,0,VALID,24.1599,VALID,42,VALID,0.00742187,
2010-08-03, 01:25:05,VALID,1008.56,VALID,0,VALID,102.627,VALID,0,VALID,24.1812,VALID,42,VALID,0,
2010-08-03, 01:26:05,VALID,1008.53,VALID,0,VALID,102.627,VALID,0,VALID,24.1599,VALID,42,VALID,0.078125,
2010-08-03, 01:27:05,VALID,1008.53,VALID,0,VALID,102.65,VALID,0,VALID,24.1793,VALID,42,VALID,0.315234,
2010-08-03, 01:28:05,VALID,1008.53,VALID,0,VALID,102.673,VALID,0,VALID,24.2007,VALID,42,VALID,0.00703125,
2010-08-03, 01:29:05,VALID,1008.5,VALID,0,VALID,102.681,VALID,0,VALID,24.2007,VALID,42,VALID,0.00078125,
2010-08-03, 01:30:05,VALID,1008.51,VALID,0,VALID,102.688,VALID,0.105969,VALID,24.1793,VALID,42,VALID,0,
2010-08-03, 01:31:05,VALID,1008.51,VALID,0,VALID,102.65,VALID,0,VALID,24.2007,VALID,45,VALID,0,
2010-08-03, 01:32:05,VALID,1008.48,VALID,0,VALID,102.658,VALID,0.105969,VALID,24.1793,VALID,52,VALID,0.226953,
2010-08-03, 01:33:05,VALID,1008.48,VALID,0,VALID,102.666,VALID,0,VALID,24.1599,VALID,55,VALID,0.147656,
2010-08-03, 01:34:05,VALID,1008.51,VALID,0,VALID,102.65,VALID,0,VALID,24.1793,VALID,55,VALID,0,
2010-08-03, 01:35:05,VALID,1008.5,VALID,0,VALID,102.666,VALID,0,VALID,24.1599,VALID,55,VALID,0,
2010-08-03, 01:36:05,VALID,1008.51,VALID,0,VALID,102.681,VALID,0,VALID,24.1599,VALID,55,VALID,0,
2010-08-03, 01:37:05,VALID,1008.52,VALID,0,VALID,102.673,VALID,0.105969,VALID,24.1599,VALID,55,VALID,0,
2010-08-03, 01:38:05,VALID,1008.51,VALID,0,VALID,102.688,VALID,0.105969,VALID,24.1599,VALID,55,VALID,0,
2010-08-03, 01:39:05,VALID,1008.48,VALID,0,VALID,102.696,VALID,0.105969,VALID,24.1599,VALID,55,VALID,0,
2010-08-03, 01:40:05,VALID,1008.46,VALID,0,VALID,102.719,VALID,0.105969,VALID,24.1599,VALID,55,VALID,0,
2010-08-03, 01:41:05,VALID,1008.43,VALID,0,VALID,102.719,VALID,0.105969,VALID,24.1599,VALID,55,VALID,0.158203,
2010-08-03, 01:42:05,VALID,1008.38,VALID,0,VALID,102.696,VALID,0.105969,VALID,24.1812,VALID,55,VALID,0,
2010-08-03, 01:43:05,VALID,1008.39,VALID,0,VALID,102.719,VALID,0.105969,VALID,24.1812,VALID,55,VALID,0,
2010-08-03, 01:44:05,VALID,1008.34,VALID,0,VALID,102.742,VALID,0.105969,VALID,24.1404,VALID,55,VALID,0,
2010-08-03, 01:45:05,VALID,1008.32,VALID,0,VALID,102.757,VALID,0.105969,VALID,24.1617,VALID,55,VALID,0,
2010-08-03, 01:46:05,VALID,1008.33,VALID,0,VALID,102.757,VALID,0.105969,VALID,24.1617,VALID,55,VALID,0,
2010-08-03, 01:47:05,VALID,1008.29,VALID,0,VALID,102.765,VALID,0,VALID,24.1617,VALID,55,VALID,0,
2010-08-03, 01:48:05,VALID,1008.29,VALID,0,VALID,102.757,VALID,0,VALID,24.1404,VALID,55,VALID,0,
2010-08-03, 01:49:05,VALID,1008.29,VALID,0,VALID,102.772,VALID,0.105969,VALID,24.1209,VALID,55,VALID,0,
2010-08-03, 01:50:05,VALID,1008.27,VALID,0,VALID,102.78,VALID,0,VALID,24.1227,VALID,55,VALID,0,
2010-08-03, 01:51:05,VALID,1008.23,VALID,0,VALID,102.803,VALID,0,VALID,24.1227,VALID,55,VALID,0,
2010-08-03, 01:52:05,VALID,1008.24,VALID,0,VALID,102.788,VALID,0,VALID,24.1227,VALID,55,VALID,0,
2010-08-03, 01:53:05,VALID,1008.23,VALID,0,VALID,102.803,VALID,0,VALID,24.1245,VALID,55,VALID,0,
2010-08-03, 01:54:05,VALID,1008.22,VALID,0,VALID,102.795,VALID,0,VALID,24.1032,VALID,55,VALID,0,
2010-08-03, 01:55:05,VALID,1008.21,VALID,0,VALID,102.803,VALID,0,VALID,24.1245,VALID,55,VALID,0,
2010-08-03, 01:56:05,VALID,1008.2,VALID,0,VALID,102.826,VALID,0,VALID,24.0837,VALID,55,VALID,0,
2010-08-03, 01:57:05,VALID,1008.21,VALID,0,VALID,102.795,VALID,0,VALID,24.0837,VALID,55,VALID,0.109766,
2010-08-03, 01:58:05,VALID,1008.19,VALID,0,VALID,102.81,VALID,0,VALID,24.0643,VALID,55,VALID,0.232031,
2010-08-03, 01:59:05,VALID,1008.21,VALID,0,VALID,102.833,VALID,0,VALID,24.0643,VALID,55,VALID,0.000390625,
2010-08-03, 02:00:05,VALID,1008.19,VALID,0,VALID,102.833,VALID,0,VALID,24.0253,VALID,55,VALID,0,
2010-08-03, 02:01:05,VALID,1008.19,VALID,0,VALID,102.841,VALID,0,VALID,24.0466,VALID,33,VALID,0,
2010-08-03, 02:02:05,VALID,1008.2,VALID,0,VALID,102.871,VALID,0,VALID,24.0253,VALID,33,VALID,0,
2010-08-03, 02:03:05,VALID,1008.18,VALID,0,VALID,102.879,VALID,0,VALID,24.0253,VALID,33,VALID,0,
2010-08-03, 02:04:05,VALID,1008.17,VALID,0,VALID,102.902,VALID,0,VALID,24.0058,VALID,33,VALID,0,
2010-08-03, 02:05:05,VALID,1008.14,VALID,0,VALID,102.91,VALID,0.105969,VALID,24.004,VALID,33,VALID,0,
2010-08-03, 02:06:05,VALID,1008.16,VALID,0,VALID,102.932,VALID,0.105969,VALID,24.0058,VALID,33,VALID,0,
2010-08-03, 02:07:05,VALID,1008.17,VALID,0,VALID,102.917,VALID,0.105969,VALID,23.9845,VALID,33,VALID,0.29375,
2010-08-03, 02:08:05,VALID,1008.13,VALID,0,VALID,102.932,VALID,0,VALID,23.965,VALID,33,VALID,0.362891,
2010-08-03, 02:09:05,VALID,1008.14,VALID,0,VALID,102.925,VALID,0.105969,VALID,23.9863,VALID,33,VALID,0.567187,
2010-08-03, 02:10:05,VALID,1008.14,VALID,0,VALID,102.955,VALID,0.105969,VALID,23.9668,VALID,33,VALID,0.341406,
2010-08-03, 02:11:05,VALID,1008.16,VALID,0,VALID,102.955,VALID,0.105969,VALID,23.9455,VALID,33,VALID,0.478516,
2010-08-03, 02:12:05,VALID,1008.14,VALID,0,VALID,102.948,VALID,0.105969,VALID,23.9455,VALID,33,VALID,0.388281,
2010-08-03, 02:13:05,VALID,1008.14,VALID,0,VALID,102.932,VALID,0,VALID,23.926,VALID,33,VALID,0.416406,
2010-08-03, 02:14:05,VALID,1008.14,VALID,0,VALID,102.94,VALID,0,VALID,23.9473,VALID,33,VALID,0.0117188,
2010-08-03, 02:15:05,VALID,1008.13,VALID,0,VALID,102.948,VALID,0.105969,VALID,23.9473,VALID,33,VALID,0.0429688,
2010-08-03, 02:16:05,VALID,1008.11,VALID,0,VALID,102.963,VALID,0.105969,VALID,23.926,VALID,33,VALID,0,
2010-08-03, 02:17:05,VALID,1008.1,VALID,0,VALID,102.963,VALID,0,VALID,23.9473,VALID,33,VALID,0,
2010-08-03, 02:18:05,VALID,1008.11,VALID,0,VALID,102.963,VALID,0,VALID,23.926,VALID,33,VALID,0,
2010-08-03, 02:19:05,VALID,1008.13,VALID,0,VALID,102.963,VALID,0,VALID,23.9473,VALID,33,VALID,0,
2010-08-03, 02:20:05,VALID,1008.16,VALID,0,VALID,102.978,VALID,0,VALID,23.926,VALID,33,VALID,0.0109375,
2010-08-03, 02:21:04,VALID,1008.17,VALID,0,VALID,102.955,VALID,0.105969,VALID,23.9473,VALID,33,VALID,0,
2010-08-03, 02:22:04,VALID,1008.14,VALID,0,VALID,102.955,VALID,0.105969,VALID,23.926,VALID,57,VALID,0.605859,
2010-08-03, 02:23:04,VALID,1008.17,VALID,0,VALID,102.925,VALID,0.105969,VALID,23.9473,VALID,57,VALID,0.235156,
2010-08-03, 02:24:04,VALID,1008.18,VALID,0,VALID,102.971,VALID,0.105969,VALID,23.926,VALID,57,VALID,0,
2010-08-03, 02:25:04,VALID,1008.16,VALID,0,VALID,102.948,VALID,0.105969,VALID,23.9455,VALID,57,VALID,0.00195313,
2010-08-03, 02:26:04,VALID,1008.15,VALID,0,VALID,102.963,VALID,0.105969,VALID,23.9455,VALID,56,VALID,0,
2010-08-03, 02:27:04,VALID,1008.17,VALID,0,VALID,102.955,VALID,0.105969,VALID,23.9455,VALID,56,VALID,0,
2010-08-03, 02:28:04,VALID,1008.15,VALID,0,VALID,102.94,VALID,0.105969,VALID,23.9455,VALID,56,VALID,0.253125,
2010-08-03, 02:29:04,VALID,1008.14,VALID,0,VALID,102.963,VALID,0,VALID,23.9455,VALID,56,VALID,0.0925781,
2010-08-03, 02:30:04,VALID,1008.13,VALID,0,VALID,102.986,VALID,0.105969,VALID,23.9863,VALID,56,VALID,0.247266,
2010-08-03, 02:31:04,VALID,1008.12,VALID,0,VALID,102.978,VALID,0.105969,VALID,23.9668,VALID,56,VALID,0.284375,
2010-08-03, 02:32:04,VALID,1008.11,VALID,0,VALID,102.993,VALID,0.105969,VALID,23.9455,VALID,56,VALID,0,
2010-08-03, 02:33:04,VALID,1008.13,VALID,0,VALID,103.001,VALID,0.105969,VALID,23.9668,VALID,56,VALID,0.270312,
2010-08-03, 02:34:04,VALID,1008.13,VALID,0,VALID,102.971,VALID,0.105969,VALID,23.9668,VALID,56,VALID,0.08125,
2010-08-03, 02:35:04,VALID,1008.15,VALID,0,VALID,102.971,VALID,0.105969,VALID,23.965,VALID,56,VALID,0,
2010-08-03, 02:36:04,VALID,1008.13,VALID,0,VALID,102.986,VALID,0.105969,VALID,23.9668,VALID,56,VALID,0.0441406,
2010-08-03, 02:37:04,VALID,1008.17,VALID,0,VALID,102.993,VALID,0.105969,VALID,23.9668,VALID,56,VALID,0.0078125,
2010-08-03, 02:38:04,VALID,1008.18,VALID,0,VALID,102.963,VALID,0.105969,VALID,23.9455,VALID,56,VALID,0,
2010-08-03, 02:39:04,VALID,1008.21,VALID,0,VALID,102.986,VALID,0,VALID,23.9668,VALID,56,VALID,0,
2010-08-03, 02:40:04,VALID,1008.23,VALID,0,VALID,102.986,VALID,0.105969,VALID,23.9455,VALID,56,VALID,0,
2010-08-03, 02:41:04,VALID,1008.23,VALID,0,VALID,102.963,VALID,0,VALID,23.9668,VALID,56,VALID,0,
2010-08-03, 02:42:04,VALID,1008.25,VALID,0,VALID,102.963,VALID,0.105969,VALID,23.965,VALID,56,VALID,0,
2010-08-03, 02:43:04,VALID,1008.28,VALID,0,VALID,102.971,VALID,0,VALID,23.965,VALID,56,VALID,0.0210938,
2010-08-03, 02:44:04,VALID,1008.3,VALID,0,VALID,102.955,VALID,0.105969,VALID,23.965,VALID,95,VALID,0.535937,
2010-08-03, 02:45:04,VALID,1008.31,VALID,0,VALID,102.948,VALID,0,VALID,23.965,VALID,76,VALID,0.710938,
2010-08-03, 02:46:04,VALID,1008.28,VALID,0,VALID,102.978,VALID,0,VALID,23.9845,VALID,76,VALID,0.641797,
2010-08-03, 02:47:04,VALID,1008.28,VALID,0,VALID,102.971,VALID,0.105969,VALID,24.0448,VALID,81,VALID,0.394141,
2010-08-03, 02:48:04,VALID,1008.31,VALID,0,VALID,102.978,VALID,0.105969,VALID,24.0235,VALID,81,VALID,0.619531,
2010-08-03, 02:49:04,VALID,1008.29,VALID,0,VALID,102.978,VALID,0,VALID,24.0448,VALID,78,VALID,0.2875,
2010-08-03, 02:50:04,VALID,1008.31,VALID,0,VALID,102.971,VALID,0,VALID,24.0235,VALID,78,VALID,0.00117188,
2010-08-03, 02:51:04,VALID,1008.33,VALID,0,VALID,102.971,VALID,0.105969,VALID,24.0448,VALID,77,VALID,0.449219,
2010-08-03, 02:52:04,VALID,1008.31,VALID,0,VALID,102.955,VALID,0,VALID,24.0235,VALID,77,VALID,0.0953125,
2010-08-03, 02:53:04,VALID,1008.3,VALID,0,VALID,102.978,VALID,0,VALID,24.0448,VALID,77,VALID,0,
2010-08-03, 02:54:04,VALID,1008.28,VALID,0,VALID,102.971,VALID,0.105969,VALID,24.0429,VALID,77,VALID,0.325,
2010-08-03, 02:55:04,VALID,1008.27,VALID,0,VALID,102.971,VALID,0,VALID,24.0643,VALID,77,VALID,0.169922,
2010-08-03, 02:56:04,VALID,1008.28,VALID,0,VALID,102.978,VALID,0,VALID,24.0429,VALID,77,VALID,0,
2010-08-03, 02:57:04,VALID,1008.27,VALID,0,VALID,102.955,VALID,0.105969,VALID,24.0643,VALID,77,VALID,0.316016,
2010-08-03, 02:58:04,VALID,1008.25,VALID,0,VALID,102.955,VALID,0,VALID,24.0643,VALID,77,VALID,0.112891,
2010-08-03, 02:59:04,VALID,1008.25,VALID,0,VALID,102.955,VALID,0.105969,VALID,24.0643,VALID,77,VALID,0.0972656,
2010-08-03, 03:00:04,VALID,1008.21,VALID,0,VALID,102.971,VALID,0,VALID,24.0429,VALID,77,VALID,0.396094,
2010-08-03, 03:01:04,VALID,1008.21,VALID,0,VALID,102.971,VALID,0.105969,VALID,24.0429,VALID,77,VALID,0.728516,
2010-08-03, 03:02:04,VALID,1008.21,VALID,0,VALID,102.948,VALID,0,VALID,24.0429,VALID,81,VALID,0.525781,
2010-08-03, 03:03:04,VALID,1008.2,VALID,0,VALID,102.94,VALID,0.105969,VALID,24.0643,VALID,81,VALID,0.908984,
2010-08-03, 03:04:04,VALID,1008.18,VALID,0,VALID,102.94,VALID,0,VALID,24.0643,VALID,81,VALID,0.665234,
2010-08-03, 03:05:04,VALID,1008.2,VALID,0,VALID,102.94,VALID,0,VALID,24.0643,VALID,84,VALID,0.59375,
2010-08-03, 03:06:04,VALID,1008.19,VALID,0,VALID,102.955,VALID,0.105969,VALID,24.0624,VALID,96,VALID,0.332031,
2010-08-03, 03:07:04,VALID,1008.19,VALID,0,VALID,102.932,VALID,0.105969,VALID,24.0624,VALID,87,VALID,0.915234,
2010-08-03, 03:08:04,VALID,1008.2,VALID,0,VALID,102.925,VALID,0.105969,VALID,24.0624,VALID,99,VALID,0.703125,
2010-08-03, 03:09:04,VALID,1008.2,VALID,0,VALID,102.925,VALID,0.105969,VALID,24.0819,VALID,101,VALID,0.660547,
2010-08-03, 03:10:04,VALID,1008.2,VALID,0,VALID,102.932,VALID,0.105969,VALID,24.1032,VALID,119,VALID,0.7,
2010-08-03, 03:11:04,VALID,1008.2,VALID,0,VALID,102.925,VALID,0,VALID,24.1227,VALID,120,VALID,0.477734,
2010-08-03, 03:12:04,VALID,1008.19,VALID,0,VALID,102.917,VALID,0,VALID,24.1014,VALID,120,VALID,0.370703,
2010-08-03, 03:13:04,VALID,1008.19,VALID,0,VALID,102.91,VALID,0,VALID,24.1032,VALID,120,VALID,0.536719,
2010-08-03, 03:14:04,VALID,1008.22,VALID,0,VALID,102.887,VALID,0.105969,VALID,24.0819,VALID,102,VALID,0.45625,
2010-08-03, 03:15:04,VALID,1008.23,VALID,0,VALID,102.887,VALID,0,VALID,24.1032,VALID,113,VALID,0.472266,
2010-08-03, 03:16:04,VALID,1008.26,VALID,0,VALID,102.902,VALID,0,VALID,24.0837,VALID,113,VALID,0.617969,
2010-08-03, 03:17:04,VALID,1008.24,VALID,0,VALID,102.887,VALID,0.105969,VALID,24.0624,VALID,113,VALID,0.357812,
2010-08-03, 03:18:04,VALID,1008.28,VALID,0,VALID,102.925,VALID,0.105969,VALID,24.0643,VALID,113,VALID,0.176172,
2010-08-03, 03:19:04,VALID,1008.28,VALID,0,VALID,102.887,VALID,0,VALID,24.0837,VALID,104,VALID,0.669531,
2010-08-03, 03:20:04,VALID,1008.3,VALID,0,VALID,102.925,VALID,0,VALID,24.0837,VALID,97,VALID,0.903516,
2010-08-03, 03:21:04,VALID,1008.32,VALID,0,VALID,102.902,VALID,0,VALID,24.0624,VALID,116,VALID,0.682813,
2010-08-03, 03:22:04,VALID,1008.31,VALID,0,VALID,102.902,VALID,0,VALID,24.0837,VALID,126,VALID,0.673828,
2010-08-03, 03:23:04,VALID,1008.34,VALID,0,VALID,102.894,VALID,0,VALID,24.0429,VALID,118,VALID,0.848828,
2010-08-03, 03:24:04,VALID,1008.31,VALID,0,VALID,102.91,VALID,0,VALID,24.0837,VALID,118,VALID,0.540625,
2010-08-03, 03:25:04,VALID,1008.29,VALID,0,VALID,102.91,VALID,0,VALID,24.0643,VALID,102,VALID,0.547266,
2010-08-03, 03:26:04,VALID,1008.28,VALID,0,VALID,102.894,VALID,0.105969,VALID,24.0837,VALID,103,VALID,0.469531,
2010-08-03, 03:27:04,VALID,1008.28,VALID,0,VALID,102.894,VALID,0,VALID,24.0837,VALID,103,VALID,0.600781,
2010-08-03, 03:28:04,VALID,1008.3,VALID,0,VALID,102.925,VALID,0.105969,VALID,24.0837,VALID,100,VALID,0.394922,
2010-08-03, 03:29:04,VALID,1008.3,VALID,0,VALID,102.887,VALID,0,VALID,24.0643,VALID,103,VALID,0.539453,
2010-08-03, 03:30:04,VALID,1008.29,VALID,0,VALID,102.887,VALID,0,VALID,24.0643,VALID,110,VALID,0.473047,
2010-08-03, 03:31:04,VALID,1008.29,VALID,0,VALID,102.887,VALID,0.105969,VALID,24.0643,VALID,110,VALID,0.714063,
2010-08-03, 03:32:04,VALID,1008.31,VALID,0,VALID,102.902,VALID,0,VALID,24.0643,VALID,110,VALID,0.34375,
2010-08-03, 03:33:04,VALID,1008.31,VALID,0,VALID,102.879,VALID,0,VALID,24.0837,VALID,106,VALID,0.471484,
2010-08-03, 03:34:04,VALID,1008.32,VALID,0,VALID,102.91,VALID,0,VALID,24.0643,VALID,76,VALID,0.533594,
2010-08-03, 03:35:04,VALID,1008.31,VALID,0,VALID,102.879,VALID,0,VALID,24.0837,VALID,76,VALID,0.0882813,
2010-08-03, 03:36:04,VALID,1008.3,VALID,0,VALID,102.887,VALID,0.105969,VALID,24.0643,VALID,76,VALID,0.139062,
2010-08-03, 03:37:04,VALID,1008.3,VALID,0,VALID,102.887,VALID,0,VALID,24.0643,VALID,37,VALID,0.5,
2010-08-03, 03:38:04,VALID,1008.32,VALID,0,VALID,102.887,VALID,0.105969,VALID,24.0643,VALID,37,VALID,0.00585938,
2010-08-03, 03:39:04,VALID,1008.29,VALID,0,VALID,102.879,VALID,0,VALID,24.0429,VALID,37,VALID,0,
2010-08-03, 03:40:04,VALID,1008.33,VALID,0,VALID,102.894,VALID,0.105969,VALID,24.0429,VALID,37,VALID,0,
2010-08-03, 03:41:04,VALID,1008.34,VALID,0,VALID,102.917,VALID,0.105969,VALID,24.0643,VALID,37,VALID,0.287109,
2010-08-03, 03:42:04,VALID,1008.34,VALID,0,VALID,102.925,VALID,0,VALID,24.0643,VALID,37,VALID,0.105078,
2010-08-03, 03:43:04,VALID,1008.36,VALID,0,VALID,102.917,VALID,0,VALID,24.0235,VALID,46,VALID,0.671875,
2010-08-03, 03:44:04,VALID,1008.35,VALID,0,VALID,102.91,VALID,0,VALID,24.0253,VALID,59,VALID,0.516797,
2010-08-03, 03:45:04,VALID,1008.38,VALID,0,VALID,102.902,VALID,0.105969,VALID,23.9845,VALID,51,VALID,0.480078,